HAMMONTON - NJ NJ-MESONET current weather conditions

sailwx.info

Wind from 018 at 11 knots gusting 12

Air temperature -5.0° C
Dewpoint -16.7° C

Last reported at 2020-Jan-21 05:00 UTC.
Time now 2020-Jan-21 06:11 UTC

Location: N 39°38' W 074°46'.
View on Google Maps.

See reports from other nearby stations

  
Tides and Currents Weather Stations Pressure Air Temp Water Temp Dewpoint Dewpoint Depression Visibility Wind Speed Wind Dir Waves Ship Positions
date/time (UTC)wind fromknots sea level pressurealtimeterstation pressurevisibilityair tempwater tempwave heightnotes
2020-Jan-21 05:00 018 11 gusting 12 -5.0
2020-Jan-21 04:50 -5.0
2020-Jan-21 04:45 014 5 gusting 10 -5.0
2020-Jan-21 04:40 009 4 gusting 9 -5.0
2020-Jan-21 04:35 018 4 gusting 10 -4.4
2020-Jan-21 04:30 021 5 gusting 9 -4.4
2020-Jan-21 04:25 012 4 gusting 10 -4.4
2020-Jan-21 04:20 339 4 gusting 9 -4.4
2020-Jan-21 04:15 015 6 gusting 11 -4.4
2020-Jan-21 04:10 317 5 gusting 9 -4.4
2020-Jan-21 04:05 030 4 gusting 7 -4.4
2020-Jan-21 04:00 007 4 gusting 10 -4.4
2020-Jan-21 03:55 015 5 gusting 12 -4.4
2020-Jan-21 03:50 014 10 gusting 10 -4.4
2020-Jan-21 03:45 351 4 gusting 7 -4.4
2020-Jan-21 03:40 002 4 gusting 8 -4.4
2020-Jan-21 03:35 328 1 gusting 6 -4.4
2020-Jan-21 03:30 348 4 gusting 7 -4.4
2020-Jan-21 03:25 337 5 gusting 8 -3.9
2020-Jan-21 03:20 341 2 gusting 9 -3.9
2020-Jan-21 03:15 345 6 gusting 9 -3.9
2020-Jan-21 03:10 327 3 gusting 9 -3.9
2020-Jan-21 03:05 324 4 gusting 9 -3.9
2020-Jan-21 03:00 018 6 gusting 7 -3.9
2020-Jan-21 02:55 014 5 gusting 7 -3.9
2020-Jan-21 02:50 -3.9
2020-Jan-21 02:45 019 3 gusting 6 -3.9
2020-Jan-21 02:40 352 1 gusting 7 -3.9
2020-Jan-21 02:35 -3.9
2020-Jan-21 02:30 324 4 gusting 7 -3.9
2020-Jan-21 02:25 001 3 gusting 6 -3.9
2020-Jan-21 02:20 307 5 gusting 8 -3.3
2020-Jan-21 02:15 329 4 gusting 8 -3.3
2020-Jan-21 02:10 350 3 gusting 9 -3.3
2020-Jan-21 02:05 346 9 gusting 9 -3.3
2020-Jan-21 02:00 -3.3
2020-Jan-21 01:55 339 3 gusting 5 -3.3
2020-Jan-21 01:50 345 3 gusting 8 -3.3
2020-Jan-21 01:45 351 4 gusting 7 -3.3
2020-Jan-21 01:40 -3.3
2020-Jan-21 01:35 341 1 gusting 5 -3.3
2020-Jan-21 01:30 010 2 gusting 6 -3.3
2020-Jan-21 01:25 001 2 gusting 6 -3.3
2020-Jan-21 01:20 -3.3
2020-Jan-21 01:15 347 5 gusting 6 -3.3
2020-Jan-21 01:10 351 3 gusting 6 -3.3
2020-Jan-21 01:05 005 3 gusting 7 -3.3
2020-Jan-21 01:00 -3.3
2020-Jan-21 00:55 351 3 gusting 4 -3.3
2020-Jan-21 00:50 343 1 gusting 6 -2.8
2020-Jan-21 00:45 347 2 gusting 5 -3.3
2020-Jan-21 00:40 351 3 gusting 6 -2.8
2020-Jan-21 00:35 352 3 gusting 7 -2.8
2020-Jan-21 00:30 315 3 gusting 7 -2.8
2020-Jan-21 00:25 352 4 gusting 7 -2.8
2020-Jan-21 00:20 352 4 gusting 8 -2.8
2020-Jan-21 00:15 340 5 gusting 6 -2.8
2020-Jan-21 00:10 309 4 gusting 7 -2.8
2020-Jan-21 00:05 320 2 gusting 6 -2.8
2020-Jan-21 00:00 330 2 gusting 6 -2.8
2020-Jan-20 23:55 318 2 gusting 5 -2.8
2020-Jan-20 23:50 338 3 gusting 6 -2.8
2020-Jan-20 23:45 005 3 gusting 5 -2.8
2020-Jan-20 23:40 342 4 gusting 5 -2.8
2020-Jan-20 23:35 343 3 gusting 6 -2.2
2020-Jan-20 23:30 340 4 gusting 5 -2.2
2020-Jan-20 23:25 329 3 gusting 6 -2.2
2020-Jan-20 23:20 327 1 gusting 4 -2.2
2020-Jan-20 23:15 333 0 gusting 4 -2.2
2020-Jan-20 23:10 -2.2
2020-Jan-20 23:05 346 3 gusting 4 -2.2
2020-Jan-20 23:00 337 3 gusting 5 -2.2
2020-Jan-20 22:55 335 2 gusting 6 -2.2
2020-Jan-20 22:50 336 2 gusting 6 -2.2
2020-Jan-20 22:45 325 3 gusting 5 -2.2
2020-Jan-20 22:40 351 2 gusting 4 -1.7
2020-Jan-20 22:35 344 3 gusting 6 -1.7
2020-Jan-20 22:30 344 3 gusting 7 -1.7
2020-Jan-20 22:25 334 5 gusting 6 -1.7
2020-Jan-20 22:20 345 1 gusting 6 -1.7
2020-Jan-20 22:15 -1.7
2020-Jan-20 22:10 -1.7
2020-Jan-20 22:05 003 4 gusting 10 -1.1
2020-Jan-20 22:00 017 6 gusting 7 -1.1
2020-Jan-20 21:55 003 4 gusting 9 -1.1
2020-Jan-20 21:50 319 1 gusting 8 -1.1
2020-Jan-20 21:45 003 6 gusting 10 -1.1
2020-Jan-20 21:40 347 4 gusting 10 -0.6
2020-Jan-20 21:35 031 4 gusting 7 -0.6
2020-Jan-20 21:30 336 3 gusting 9 -0.6
2020-Jan-20 21:25 028 6 gusting 11 -0.6
2020-Jan-20 21:20 351 4 gusting 9 -0.6
2020-Jan-20 21:15 326 6 gusting 10 -0.6
2020-Jan-20 21:10 008 4 gusting 9 -0.0
2020-Jan-20 21:05 309 6 gusting 13 -0.0
2020-Jan-20 21:00 020 6 gusting 13 -0.0
2020-Jan-20 20:55 017 5 gusting 13 -0.0
2020-Jan-20 20:50 021 7 gusting 12 -0.0
2020-Jan-20 20:45 346 7 gusting 10 -0.0
2020-Jan-20 20:40 319 4 gusting 11 -0.0
2020-Jan-20 20:35 -0.0
2020-Jan-20 20:30 024 12 gusting 12 -0.0
2020-Jan-20 20:25 013 9 gusting 14 -0.0
2020-Jan-20 20:20 006 4 gusting 15 -0.0
2020-Jan-20 20:15 014 7 gusting 14 -0.0
2020-Jan-20 20:10 031 10 gusting 10 -0.0
2020-Jan-20 20:05 014 7 gusting 13 -0.0
2020-Jan-20 20:00 001 4 gusting 9 0.6
2020-Jan-20 19:55 009 8 gusting 12 -0.0
2020-Jan-20 19:50 307 5 gusting 13 -0.0
2020-Jan-20 19:45 013 5 gusting 15 -0.0
2020-Jan-20 19:40 013 9 gusting 13 0.6
2020-Jan-20 19:35 349 4 gusting 13 -0.0
2020-Jan-20 19:30 333 9 gusting 10 0.6
2020-Jan-20 19:25 104 6 gusting 13 -0.0
2020-Jan-20 19:20 017 10 gusting 13 -0.0
2020-Jan-20 19:15 346 4 gusting 13 -0.0
2020-Jan-20 19:10 340 9 gusting 13 -0.0
2020-Jan-20 19:05 004 6 gusting 13 -0.0
2020-Jan-20 19:00 022 9 gusting 13 -0.0
2020-Jan-20 18:55 012 6 gusting 12 -0.0
2020-Jan-20 18:50 350 10 gusting 13 -0.0
2020-Jan-20 18:45 013 11 gusting 13 -0.6
2020-Jan-20 18:40 015 9 gusting 15 -0.6
2020-Jan-20 18:35 -0.6
2020-Jan-20 18:30 011 9 gusting 14 -0.6
2020-Jan-20 18:25 001 12 gusting 15 -0.6
2020-Jan-20 18:20 343 11 gusting 13 -0.6
2020-Jan-20 18:15 018 6 gusting 15 -0.6
2020-Jan-20 18:10 302 6 gusting 15 -0.6
2020-Jan-20 18:05 331 6 gusting 13 -0.6
2020-Jan-20 18:00 019 3 gusting 14 -0.6
2020-Jan-20 17:55 022 9 gusting 16 -0.6
2020-Jan-20 17:50 015 18 gusting 18 -1.1
2020-Jan-20 17:45 352 9 gusting 11 -0.6
2020-Jan-20 17:40 017 11 gusting 15 -1.1
2020-Jan-20 17:35 010 7 gusting 13 -0.6
2020-Jan-20 17:30 351 6 gusting 15 -1.1
2020-Jan-20 17:25 013 11 gusting 15 -1.1
2020-Jan-20 17:20 338 8 gusting 17 -1.1
2020-Jan-20 17:15 033 13 gusting 16 -1.1
2020-Jan-20 17:10 327 10 gusting 16 -1.1
2020-Jan-20 17:05 346 5 gusting 12 -1.1
2020-Jan-20 17:00 342 9 gusting 12 -1.1
2020-Jan-20 16:55 011 6 gusting 14 -1.7
2020-Jan-20 16:50 -1.7
2020-Jan-20 16:45 034 7 gusting 15 -1.7
2020-Jan-20 16:40 012 11 gusting 13 -1.7
2020-Jan-20 16:35 019 7 gusting 15 -1.7
2020-Jan-20 16:30 016 13 gusting 14 -1.7
2020-Jan-20 16:25 346 9 gusting 13 -1.7
2020-Jan-20 16:20 012 8 gusting 16 -2.2
2020-Jan-20 16:15 021 15 gusting 15 -1.7
2020-Jan-20 16:10 005 15 gusting 18 -1.7
2020-Jan-20 16:05 052 7 gusting 15 -2.2
2020-Jan-20 16:00 017 10 gusting 15 -2.2
2020-Jan-20 15:55 118 10 gusting 18 -2.2
2020-Jan-20 15:50 017 12 gusting 14 -2.2
2020-Jan-20 15:45 006 10 gusting 13 -1.7
2020-Jan-20 15:40 018 7 gusting 12 -2.2
2020-Jan-20 15:35 021 11 gusting 13 -2.2
2020-Jan-20 15:30 023 5 gusting 16 -2.2
2020-Jan-20 15:25 016 7 gusting 16 -2.8
2020-Jan-20 15:20 024 17 gusting 17 -2.8
2020-Jan-20 15:15 034 9 gusting 17 -2.8
2020-Jan-20 15:10 027 13 gusting 15 -2.8
2020-Jan-20 15:05 352 7 gusting 13 -2.8
2020-Jan-20 15:00 007 8 gusting 13 -2.8
2020-Jan-20 14:55 005 9 gusting 15 -2.8
2020-Jan-20 14:50 015 10 gusting 17 -2.8
2020-Jan-20 14:45 016 6 gusting 13 -3.3
2020-Jan-20 14:40 -3.3
2020-Jan-20 14:35 027 11 gusting 20 -3.3
2020-Jan-20 14:30 018 13 gusting 13 -3.3
2020-Jan-20 14:25 -3.3
2020-Jan-20 14:20 011 9 gusting 17 -3.9
2020-Jan-20 14:15 020 12 gusting 19 -3.9
2020-Jan-20 14:10 030 8 gusting 18 -3.9
2020-Jan-20 14:05 351 13 gusting 18 -3.9
2020-Jan-20 14:00 020 8 gusting 18 -3.9
2020-Jan-20 13:55 019 11 gusting 19 -3.9
2020-Jan-20 13:50 004 9 gusting 22 -3.9
2020-Jan-20 13:45 -4.4
2020-Jan-20 13:40 002 12 gusting 13 -3.9
2020-Jan-20 13:35 030 4 gusting 14 -4.4
2020-Jan-20 13:30 026 6 gusting 17 -4.4
2020-Jan-20 13:25 345 5 gusting 13 -4.4
2020-Jan-20 13:20 024 5 gusting 13 -4.4
2020-Jan-20 13:15 004 9 gusting 13 -4.4
2020-Jan-20 13:10 308 6 gusting 10 -4.4
2020-Jan-20 13:05 348 5 gusting 12 -5.0
2020-Jan-20 13:00 -5.0
2020-Jan-20 12:55 343 6 gusting 11 -5.0
2020-Jan-20 12:50 314 2 gusting 13 -5.0
2020-Jan-20 12:45 340 5 gusting 13 -5.0
2020-Jan-20 12:40 -5.0
2020-Jan-20 12:35 003 6 gusting 9 -5.0
2020-Jan-20 12:30 -5.0
2020-Jan-20 12:25 014 2 gusting 8 -5.0
2020-Jan-20 12:20 -5.0
2020-Jan-20 12:15 023 8 gusting 12 -5.0
2020-Jan-20 12:10 001 4 gusting 9 -5.0
2020-Jan-20 12:05 333 2 gusting 9 -5.6
2020-Jan-20 12:00 352 5 gusting 9 -5.6
2020-Jan-20 11:55 001 6 gusting 13 -5.0
2020-Jan-20 11:50 006 5 gusting 11 -5.0
2020-Jan-20 11:45 002 6 gusting 9 -5.0
2020-Jan-20 11:40 008 3 gusting 7 -5.0
2020-Jan-20 11:35 002 6 gusting 10 -5.0
2020-Jan-20 11:30 332 8 gusting 11 -5.0
2020-Jan-20 11:25 -5.0
2020-Jan-20 11:20 352 8 gusting 11 -5.0
2020-Jan-20 11:15 348 9 gusting 13 -5.0
2020-Jan-20 11:10 007 9 gusting 9 -5.0
2020-Jan-20 11:05 347 5 gusting 13 -5.0
2020-Jan-20 11:00 011 6 gusting 13 -5.0
2020-Jan-20 10:55 009 9 gusting 15 -5.0
2020-Jan-20 10:50 020 6 gusting 16 -5.0
2020-Jan-20 10:45 003 11 gusting 12 -5.0
2020-Jan-20 10:40 326 7 gusting 13 -5.0
2020-Jan-20 10:35 351 9 gusting 13 -5.0
2020-Jan-20 10:30 -5.0
2020-Jan-20 10:25 315 4 gusting 7 -5.0
2020-Jan-20 10:20 001 6 gusting 13 -5.0
2020-Jan-20 10:15 325 6 gusting 12 -5.0
2020-Jan-20 10:10 -5.0
2020-Jan-20 10:05 340 6 gusting 10 -5.0
2020-Jan-20 10:00 309 3 gusting 13 -5.0
2020-Jan-20 09:55 350 13 gusting 13 -5.0
2020-Jan-20 09:50 311 7 gusting 13 -5.0
2020-Jan-20 09:45 347 6 gusting 14 -5.0
2020-Jan-20 09:40 002 9 gusting 13 -5.0
2020-Jan-20 09:35 351 4 gusting 17 -5.0
2020-Jan-20 09:30 344 4 gusting 13 -5.0
2020-Jan-20 09:25 328 4 gusting 13 -5.0
2020-Jan-20 09:20 336 13 gusting 13 -5.0
2020-Jan-20 09:15 337 6 gusting 15 -4.4
2020-Jan-20 09:10 321 9 gusting 19 -4.4
2020-Jan-20 09:05 328 4 gusting 13 -4.4
2020-Jan-20 09:00 351 6 gusting 13 -4.4
2020-Jan-20 08:55 -4.4
2020-Jan-20 08:50 -3.9
2020-Jan-20 08:45 004 9 gusting 13 -3.9
2020-Jan-20 08:40 003 5 gusting 16 -3.9
2020-Jan-20 08:35 003 11 gusting 22 -3.9
2020-Jan-20 08:30 007 15 gusting 18 -3.9
2020-Jan-20 08:25 344 11 gusting 18 -3.9
2020-Jan-20 08:20 001 12 gusting 13 -3.3
2020-Jan-20 08:15 007 12 gusting 18 -3.3
2020-Jan-20 08:10 325 9 gusting 13 -3.3
2020-Jan-20 08:05 303 6 gusting 16 -3.3
2020-Jan-20 08:00 337 11 gusting 14 -3.3
2020-Jan-20 07:55 332 5 gusting 13 -3.3
2020-Jan-20 07:50 346 9 gusting 13 -3.3
2020-Jan-20 07:45 328 8 gusting 11 -3.3
2020-Jan-20 07:40 345 9 gusting 17 -3.3
2020-Jan-20 07:35 311 9 gusting 17 -3.3
2020-Jan-20 07:30 332 3 gusting 15 -3.3
2020-Jan-20 07:25 304 13 gusting 13 -3.3
2020-Jan-20 07:20 334 5 gusting 12 -3.3
2020-Jan-20 07:15 334 6 gusting 13 -3.3
2020-Jan-20 07:10 329 8 gusting 12 -3.3
2020-Jan-20 07:05 336 4 gusting 9 -3.3
2020-Jan-20 07:00 318 6 gusting 13 -3.3
2020-Jan-20 06:55 -3.3
2020-Jan-20 06:50 333 4 gusting 9 -3.3
2020-Jan-20 06:45 352 5 gusting 12 -3.3
2020-Jan-20 06:40 312 4 gusting 9 -3.9
2020-Jan-20 06:35 323 4 gusting 10 -3.9
2020-Jan-20 06:30 312 3 gusting 9 -3.9
2020-Jan-20 06:25 315 6 gusting 11 -3.3
2020-Jan-20 06:20 343 9 gusting 12 -3.3
2020-Jan-20 06:15 346 6 gusting 10 -3.3
2020-Jan-20 06:10 320 6 gusting 11 -3.3
2020-Jan-20 06:05 328 5 gusting 9 -3.3
2020-Jan-20 06:00 289 6 gusting 9 -3.3
2020-Jan-20 05:55 310 8 gusting 13 -3.3
2020-Jan-20 05:50 273 4 gusting 10 -3.3
2020-Jan-20 05:45 311 6 gusting 8 -3.3
2020-Jan-20 05:40 317 4 gusting 7 -3.3
2020-Jan-20 05:35 325 6 gusting 7 -3.3
2020-Jan-20 05:30 306 4 gusting 7 -3.3
2020-Jan-20 05:25 313 5 gusting 6 -3.3
2020-Jan-20 05:20 310 4 gusting 9 -3.3
2020-Jan-20 05:15 265 6 gusting 9 -2.8
2020-Jan-20 05:10 333 2 gusting 9 -2.8
2020-Jan-20 05:05 317 6 gusting 9 -2.8
2020-Jan-20 05:00 305 3 gusting 9 -2.8
2020-Jan-20 04:55 306 4 gusting 12 -2.8
2020-Jan-20 04:50 313 3 gusting 13 -2.8
2020-Jan-20 04:45 -2.8
2020-Jan-20 04:40 306 5 gusting 12 -2.8
2020-Jan-20 04:35 323 5 gusting 10 -2.8
2020-Jan-20 04:30 308 1 gusting 9 -2.8
2020-Jan-20 04:25 320 6 gusting 12 -2.8
2020-Jan-20 04:20 344 2 gusting 9 -2.8
2020-Jan-20 04:15 309 3 gusting 13 -2.2
2020-Jan-20 04:10 324 9 gusting 20 -2.2
2020-Jan-20 04:05 304 5 gusting 9 -2.8
2020-Jan-20 04:00 295 3 gusting 12 -2.8
2020-Jan-20 03:55 326 4 gusting 9 -2.2
2020-Jan-20 03:50 314 2 gusting 8 -2.8
2020-Jan-20 03:45 299 4 gusting 7 -2.8
2020-Jan-20 03:40 314 7 gusting 11 -2.2
2020-Jan-20 03:35 286 4 gusting 12 -2.2
2020-Jan-20 03:30 326 6 gusting 13 -2.2
2020-Jan-20 03:25 314 9 gusting 13 -2.2
2020-Jan-20 03:20 303 2 gusting 10 -2.2
2020-Jan-20 03:15 010 7 gusting 13 -2.2
2020-Jan-20 03:10 310 5 gusting 12 -2.2
2020-Jan-20 03:05 320 7 gusting 12 -2.2
2020-Jan-20 03:00 346 3 gusting 12 -1.7
2020-Jan-20 02:55 284 3 gusting 13 -2.2
2020-Jan-20 02:50 323 9 gusting 12 -1.7
2020-Jan-20 02:45 004 4 gusting 13 -1.7
2020-Jan-20 02:40 315 4 gusting 13 -1.7
2020-Jan-20 02:35 304 9 gusting 13 -1.7
2020-Jan-20 02:30 320 6 gusting 15 -1.7
2020-Jan-20 02:25 326 6 gusting 13 -1.7
2020-Jan-20 02:20 294 6 gusting 16 -1.7
2020-Jan-20 02:15 346 13 gusting 16 -1.7
2020-Jan-20 02:10 342 8 gusting 17 -1.7
2020-Jan-20 02:05 342 4 gusting 9 -1.7
2020-Jan-20 02:00 324 4 gusting 13 -1.7
2020-Jan-20 01:55 343 5 gusting 12 -1.1
2020-Jan-20 01:50 329 6 gusting 13 -1.1
2020-Jan-20 01:45 324 7 gusting 13 -1.1
2020-Jan-20 01:40 308 6 gusting 12 -1.1
2020-Jan-20 01:35 323 6 gusting 10 -1.1
2020-Jan-20 01:30 297 4 gusting 13 -1.1
2020-Jan-20 01:25 307 6 gusting 13 -1.1
2020-Jan-20 01:20 320 6 gusting 11 -1.1
2020-Jan-20 01:15 296 6 gusting 13 -1.1
2020-Jan-20 01:10 319 8 gusting 13 -1.1
2020-Jan-20 01:05 318 9 gusting 10 -1.1
2020-Jan-20 01:00 346 5 gusting 13 -1.1
2020-Jan-20 00:55 288 6 gusting 14 -1.1
2020-Jan-20 00:50 319 6 gusting 12 -0.6
2020-Jan-20 00:45 325 6 gusting 13 -0.6
2020-Jan-20 00:40 307 7 gusting 14 -0.6
2020-Jan-20 00:35 311 9 gusting 14 -0.6
2020-Jan-20 00:30 305 8 gusting 18 -0.6
2020-Jan-20 00:25 323 5 gusting 12 -0.6
2020-Jan-20 00:20 306 8 gusting 14 -0.6
2020-Jan-20 00:15 290 5 gusting 17 -0.6
2020-Jan-20 00:10 324 5 gusting 14 -0.6
2020-Jan-20 00:05 318 7 gusting 18 -0.6
2020-Jan-20 00:00 285 7 gusting 18 -0.0
2020-Jan-19 23:55 302 6 gusting 14 -0.0
2020-Jan-19 23:50 311 10 gusting 14 -0.0
2020-Jan-19 23:45 299 8 gusting 13 -0.0
2020-Jan-19 23:40 315 9 gusting 18 -0.0
2020-Jan-19 23:35 308 6 gusting 18 -0.0
2020-Jan-19 23:30 271 11 gusting 17 0.6
2020-Jan-19 23:25 326 11 gusting 12 -0.0
2020-Jan-19 23:20 299 9 gusting 16 0.6
2020-Jan-19 23:15 319 8 gusting 13 0.6
2020-Jan-19 23:10 314 5 gusting 13 0.6
2020-Jan-19 23:05 270 6 gusting 13 0.6
2020-Jan-19 23:00 339 5 gusting 13 0.6
2020-Jan-19 22:55 304 4 gusting 18 1.1
2020-Jan-19 22:50 287 7 gusting 15 1.1
2020-Jan-19 22:45 288 6 gusting 14 1.1
2020-Jan-19 22:40 297 10 gusting 13 1.1
2020-Jan-19 22:35 309 13 gusting 15 1.1
2020-Jan-19 22:30 308 7 gusting 15 1.1
2020-Jan-19 22:25 317 8 gusting 13 1.7
2020-Jan-19 22:20 325 6 gusting 15 1.7
2020-Jan-19 22:15 327 4 gusting 17 1.7
2020-Jan-19 22:10 317 9 gusting 14 1.7
2020-Jan-19 22:05 319 7 gusting 13 1.7
2020-Jan-19 22:00 342 7 gusting 16 2.2
2020-Jan-19 21:55 325 7 gusting 15 2.2
2020-Jan-19 21:50 332 6 gusting 13 2.2
2020-Jan-19 21:45 324 6 gusting 16 2.8
2020-Jan-19 21:40 312 8 gusting 18 2.8
2020-Jan-19 21:35 302 4 gusting 15 2.8
2020-Jan-19 21:30 322 6 gusting 15 2.8
2020-Jan-19 21:25 297 10 gusting 17 2.8
2020-Jan-19 21:20 317 5 gusting 16 3.3
2020-Jan-19 21:15 306 11 gusting 18 3.3
2020-Jan-19 21:10 349 6 gusting 18 3.3
2020-Jan-19 21:05 310 8 gusting 19 3.9
2020-Jan-19 21:00 316 10 gusting 16 3.9
2020-Jan-19 20:55 312 13 gusting 13 3.9
2020-Jan-19 20:50 292 9 gusting 16 3.9
2020-Jan-19 20:45 328 11 gusting 13 3.9
2020-Jan-19 20:40 309 12 gusting 13 4.4
2020-Jan-19 20:35 289 12 gusting 16 3.9
2020-Jan-19 20:30 307 9 gusting 15 4.4
2020-Jan-19 20:25 297 7 gusting 17 4.4
2020-Jan-19 20:20 319 13 gusting 18 4.4
2020-Jan-19 20:15 310 12 gusting 22 4.4
2020-Jan-19 20:10 291 7 gusting 15 4.4
2020-Jan-19 20:05 309 8 gusting 14 5.0
2020-Jan-19 20:00 278 5 gusting 14 5.0
2020-Jan-19 19:55 348 11 gusting 16 3.9
2020-Jan-19 19:50 289 13 gusting 13 4.4
2020-Jan-19 19:45 338 5 gusting 13 4.4
2020-Jan-19 19:40 326 9 gusting 18 3.9
2020-Jan-19 19:35 297 13 gusting 15 3.9
2020-Jan-19 19:30 317 11 gusting 18 4.4
2020-Jan-19 19:25 321 6 gusting 18 4.4
2020-Jan-19 19:20 303 4 gusting 17 3.9
2020-Jan-19 19:15 306 8 gusting 15 3.9
2020-Jan-19 19:10 313 11 gusting 17 3.9
2020-Jan-19 19:05 311 6 gusting 17 3.9
2020-Jan-19 19:00 323 7 gusting 16 3.9
2020-Jan-19 18:55 327 6 gusting 18 4.4
2020-Jan-19 18:50 308 6 gusting 15 4.4
2020-Jan-19 18:45 297 13 gusting 15 4.4
2020-Jan-19 18:40 310 6 gusting 12 4.4
2020-Jan-19 18:35 310 9 gusting 17 4.4
2020-Jan-19 18:30 289 12 gusting 18 4.4
2020-Jan-19 18:25 312 7 gusting 21 4.4
2020-Jan-19 18:20 255 8 gusting 19 5.0
2020-Jan-19 18:15 302 12 gusting 19 4.4
2020-Jan-19 18:10 281 8 gusting 16 5.0
2020-Jan-19 18:05 315 16 gusting 19 4.4
2020-Jan-19 18:00 286 8 gusting 19 5.0
2020-Jan-19 17:55 317 9 gusting 19 5.6
2020-Jan-19 17:50 307 7 gusting 19 5.6
2020-Jan-19 17:45 288 6 gusting 19 6.1
2020-Jan-19 17:40 344 6 gusting 19 6.1
2020-Jan-19 17:35 295 9 gusting 18 6.1
2020-Jan-19 17:30 300 6 gusting 19 6.1
2020-Jan-19 17:25 311 8 gusting 19 6.1
2020-Jan-19 17:20 321 9 gusting 18 5.6
2020-Jan-19 17:15 303 16 gusting 18 6.1
2020-Jan-19 17:10 323 10 gusting 19 6.7
2020-Jan-19 17:05 338 11 gusting 18 6.7
2020-Jan-19 17:00 344 13 gusting 18 6.1
2020-Jan-19 16:55 300 10 gusting 19 6.1
2020-Jan-19 16:50 328 9 gusting 18 6.1
2020-Jan-19 16:45 303 13 gusting 19 6.1
2020-Jan-19 16:40 308 13 gusting 20 6.1
2020-Jan-19 16:35 313 9 gusting 22 6.1
2020-Jan-19 16:30 337 6 gusting 22 6.1
2020-Jan-19 16:25 306 9 gusting 15 6.7
2020-Jan-19 16:20 332 4 gusting 13 6.1
2020-Jan-19 16:15 306 6 gusting 13 6.1
2020-Jan-19 16:10 335 9 gusting 15 5.6
2020-Jan-19 16:05 314 13 gusting 19 5.6
2020-Jan-19 16:00 348 6 gusting 19 5.6
2020-Jan-19 15:55 309 8 gusting 18 5.6
2020-Jan-19 15:50 311 17 gusting 19 5.0
2020-Jan-19 15:45 340 7 gusting 16 5.0
2020-Jan-19 15:40 340 4 gusting 16 5.0
2020-Jan-19 15:35 346 4 gusting 12 5.6
2020-Jan-19 15:30 298 9 gusting 12 5.6
2020-Jan-19 15:25 294 9 gusting 12 5.6
2020-Jan-19 15:20 318 5 gusting 14 5.6
2020-Jan-19 15:15 002 9 gusting 13 6.1
2020-Jan-19 15:10 334 8 gusting 11 6.1
2020-Jan-19 15:05 304 5 gusting 12 5.6
2020-Jan-19 15:00 284 4 gusting 9 5.6
2020-Jan-19 14:55 288 6 gusting 10 5.0
2020-Jan-19 14:50 284 5 gusting 10 5.0
2020-Jan-19 14:45 267 4 gusting 11 5.0
2020-Jan-19 14:40 292 6 gusting 13 5.0
2020-Jan-19 14:35 328 3 gusting 9 4.4
2020-Jan-19 14:30 314 7 gusting 9 4.4
2020-Jan-19 14:25 308 6 gusting 10 4.4
2020-Jan-19 14:20 294 4 gusting 6 4.4
2020-Jan-19 14:15 267 4 gusting 6 4.4
2020-Jan-19 14:10 281 4 gusting 6 4.4
2020-Jan-19 14:05 239 3 gusting 4 4.4
2020-Jan-19 14:00 277 4 gusting 5 3.9
2020-Jan-19 13:55 248 2 gusting 6 3.9
2020-Jan-19 13:50 296 3 gusting 6 3.9
2020-Jan-19 13:45 275 3 gusting 6 3.9
2020-Jan-19 13:40 306 4 gusting 6 3.9
2020-Jan-19 13:35 268 4 gusting 6 3.9
2020-Jan-19 13:30 270 3 gusting 5 3.9
2020-Jan-19 13:25 229 2 gusting 6 3.9
2020-Jan-19 13:20 243 2 gusting 4 3.9
2020-Jan-19 13:15 278 1 gusting 4 3.9
2020-Jan-19 13:10 258 3 gusting 4 3.9
2020-Jan-19 13:05 262 2 gusting 4 3.9
2020-Jan-19 13:00 222 1 gusting 4 3.9
2020-Jan-19 12:55 244 1 gusting 3 3.9
2020-Jan-19 12:50 231 2 gusting 4 3.9
2020-Jan-19 12:45 238 3.9
2020-Jan-19 12:40 217 2 gusting 3 3.9
2020-Jan-19 12:35 233 0 gusting 3 3.9
2020-Jan-19 12:30 235 1 gusting 3 3.9
2020-Jan-19 12:25 221 3 gusting 5 3.9
2020-Jan-19 12:20 237 3.9
2020-Jan-19 12:15 240 1 gusting 4 3.9
2020-Jan-19 12:10 245 1 gusting 4 3.9
2020-Jan-19 12:05 228 1 gusting 4 4.4
2020-Jan-19 12:00 233 3 gusting 4 3.9
2020-Jan-19 11:55 278 3 gusting 4 4.4
2020-Jan-19 11:50 272 1 gusting 4 4.4
2020-Jan-19 11:45 252 2 gusting 6 4.4
2020-Jan-19 11:40 291 1 gusting 4 4.4
2020-Jan-19 11:35 314 1 gusting 4 4.4
2020-Jan-19 11:30 288 1 gusting 4 4.4
2020-Jan-19 11:25 300 4 gusting 4 4.4
2020-Jan-19 11:20 287 2 gusting 5 4.4
2020-Jan-19 11:15 294 4 gusting 5 4.4
2020-Jan-19 11:10 277 1 gusting 6 4.4
2020-Jan-19 11:05 266 4 gusting 4 4.4
2020-Jan-19 11:00 290 2 gusting 6 4.4
2020-Jan-19 10:55 276 2 gusting 5 4.4
2020-Jan-19 10:50 328 4 gusting 5 4.4
2020-Jan-19 10:45 326 2 gusting 6 4.4
2020-Jan-19 10:40 327 4 gusting 7 5.0
2020-Jan-19 10:35 301 3 gusting 6 4.4
2020-Jan-19 10:30 270 4 gusting 6 5.0
2020-Jan-19 10:25 293 5 gusting 6 5.0
2020-Jan-19 10:20 324 5 gusting 7 5.0
2020-Jan-19 10:15 326 1 gusting 6 5.0
2020-Jan-19 10:10 309 4 gusting 5 5.0
2020-Jan-19 10:05 310 2 gusting 6 5.0
2020-Jan-19 10:00 315 2 gusting 6 5.0
2020-Jan-19 09:55 281 3 gusting 8 5.0
2020-Jan-19 09:50 265 2 gusting 7 5.0
2020-Jan-19 09:45 295 6 gusting 9 5.0
2020-Jan-19 09:40 309 9 gusting 9 5.6
2020-Jan-19 09:35 260 6 gusting 9 5.6
2020-Jan-19 09:30 287 4 gusting 11 5.6
2020-Jan-19 09:25 272 8 gusting 9 5.6
2020-Jan-19 09:20 285 6 gusting 11 5.6
2020-Jan-19 09:15 249 5 gusting 12 5.0
2020-Jan-19 09:10 253 6 gusting 13 5.6
2020-Jan-19 09:05 259 6 gusting 10 5.6
2020-Jan-19 09:00 236 6 gusting 10 5.6
2020-Jan-19 08:55 266 9 gusting 9 5.6
2020-Jan-19 08:50 266 3 gusting 9 5.6
2020-Jan-19 08:45 285 7 gusting 9 5.6
2020-Jan-19 08:40 285 4 gusting 10 5.6
2020-Jan-19 08:35 277 7 gusting 9 5.6
2020-Jan-19 08:30 293 9 gusting 10 5.6
2020-Jan-19 08:25 297 4 gusting 8 5.6
2020-Jan-19 08:20 280 6 gusting 12 5.6
2020-Jan-19 08:15 269 4 gusting 10 5.6
2020-Jan-19 08:10 283 9 gusting 9 5.6
2020-Jan-19 08:05 270 5 gusting 10 5.6
2020-Jan-19 08:00 268 5 gusting 9 5.6
2020-Jan-19 07:55 297 4 gusting 10 5.6
2020-Jan-19 07:50 287 5 gusting 7 5.6
2020-Jan-19 07:45 261 4 gusting 9 5.6
2020-Jan-19 07:40 260 4 gusting 9 5.6
2020-Jan-19 07:35 283 4 gusting 9 5.6
2020-Jan-19 07:30 211 3 gusting 12 5.6
2020-Jan-19 07:25 290 4 gusting 12 5.6
2020-Jan-19 07:20 242 8 gusting 14 5.6
2020-Jan-19 07:15 222 5 gusting 13 5.6
2020-Jan-19 07:10 261 5 gusting 9 5.6
2020-Jan-19 07:05 278 7 gusting 12 5.6
2020-Jan-19 07:00 233 8 gusting 13 5.6
2020-Jan-19 06:55 197 6 gusting 11 5.6
2020-Jan-19 06:50 209 9 gusting 14 5.6
2020-Jan-19 06:45 238 5 gusting 11 5.6
2020-Jan-19 06:40 219 8 gusting 16 5.6
2020-Jan-19 06:35 257 13 gusting 18 5.6
2020-Jan-19 06:30 249 5 gusting 13 5.6
2020-Jan-19 06:25 215 6 gusting 15 5.6
2020-Jan-19 06:20 238 14 gusting 14 5.6
2020-Jan-19 06:15 211 4 gusting 15 5.6
2020-Jan-19 06:10 254 6 gusting 14 5.6
2020-Jan-19 06:05 247 11 gusting 13 5.6
2020-Jan-19 06:00 225 4 gusting 19 5.6